NWS Melbourne » East Central Florida Hourly Weather Roundup

MIARWRMLB 000
TTAA00 KMLB 011911
HOURLY WEATHER ROUNDUP AROUND FLORIDA
NATIONAL WEATHER SERVICE OFFICE MELBOURNE FL
300 PM EDT MON SEP 01 2014
  
CITY           SKY/WX    TMP DP  RH WIND       PRES   REMARKS
MELBOURNE      MOSUNNY   87  71  58 SE12      30.08F                  
FORT PIERCE    SUNNY     90  72  55 E13       30.07F                  
ORLANDO INTL   MOSUNNY   93  70  46 VRB3      30.07F HX  99           
DAYTONA BEACH  MOSUNNY   91  69  48 E9        30.10F                  
VERO BEACH     MOSUNNY   87  74  64 E10       30.08F                  
$$
...ELSEWHERE ACROSS CENTRAL FLORIDA...
  
CITY           SKY/WX    TMP DP  RH WIND       PRES   REMARKS
PATRICK AFB    SUNNY     87  73  63 E12       30.09F                  
JFK SPACE CTR  MOSUNNY   90  75  62 E8        30.09F HX 100           
CAPE CANAVERAL SUNNY     89  76  65 E9        30.09F HX  99           
TITUSVILLE     MOSUNNY   90  73  58 E12       30.10F HX  98           
ORLANDO EXEC   PTSUNNY   91  69  48 E3        30.08F                  
LEESBURG       SUNNY     93  71  48 S6        30.09F HX 100           
SANFORD        MOSUNNY   92  72  51 E9        30.08F HX  99           
WINTER HAVEN   SUNNY     93  67  42 E5        30.09F                  
KISSIMMEE      MOSUNNY   93  70  46 CALM      30.08F HX  99           
OKEECHOBEE     PTSUNNY   84  72  65 MISG      30.09S THUNDER          
TAMPA          MOSUNNY   92  71  50 S8        30.08F HX  98           
$$
...NORTHERN FLORIDA...
  
CITY           SKY/WX    TMP DP  RH WIND       PRES   REMARKS
DELAND         MOSUNNY   90  72  55 NE9       30.09F                  
NEW SMYRNA BCH MOSUNNY   88  72  58 E9        30.10F                  
ORMOND BEACH   MOSUNNY   90  73  58 E15       30.10F HX  98           
PALM COAST     SUNNY     90  72  55 E9        30.10F                  
ST AUGUSTINE   SUNNY     89  75  63 E13       30.09F HX  99           
OCALA          MOSUNNY   90  72  55 SE7       30.08F                  
GAINESVILLE    SUNNY     93  70  46 VRB5      30.08F HX  99           
JACKSONVILLE   PTSUNNY   90  72  55 SE7       30.07F                  
TALLAHASSEE    LGT RAIN  91  72  53 W3        30.07F HX  98           
$$
...ALONG THE SOUTHEAST COAST TO THE KEYS...
  
CITY           SKY/WX    TMP DP  RH WIND       PRES   REMARKS
STUART         MOSUNNY   88  73  62 E12G17    30.08F                  
WEST PALM BCH  PTSUNNY   88  73  61 E13G22    30.06F                  
MIAMI          MOSUNNY   91  74  57 SE14G21   30.06F HX 100           
KEY WEST       SUNNY     89  76  65 SE13      30.05F HX 100           
$$
...MARINE REPORTS...
  
STATION/POSITION TIME  TEMP    WIND        PRES    WAVE   SWELL
                       AIR SEA DIR/SP/G            HT/PER HT/PER/DIR
                 (UTC) (F)     (DEG/KT/KT) (MB)    (FT/S) (FT/S/D)
ST AUGUSTINE FP  1900   84     110/ 10/ 11 1019.7F
20NM E CAPE CANA 1900   84 88  110/  2/  2 1019.6F   2/ 9   2/110/ 9
120 E NEW SMYRNA 1900   83 86  110/  4/  6 1019.8F   2/ 8   2/100/ 8
TRIDENT PIER     1900   88 86  120/  7/ 10 1018.8F
SEBASTIAN INLET  1900   83     100/  8     1019.0F
4NM E PORT CANAV 1900      85                N/A     2/ 9
6NM NE FPR INLET 1900      87                N/A     2/ 7
SETTLEMENT PT GB 1900   85     240/  3/  3 1019.0F
$$
  
 


USA.gov is the U.S. government's official web portal to all federal, state and local government web resources and services.